Miscellaneous Local Product
Issued by NWS North Platte, NE

Home | Current Version | Previous Version | Graphics & Text | Print | Product List | Glossary On
Versions: 1 2 3 4 5 6 7 8 9 10 11 12 13 14 15 16 17 18 19 20 21 22 23 24 25 26 27 28 29 30 31 32 33 34 35 36 37 38 39 40 41 42 43 44 45 46 47 48 49 50
000
AXUS43 KLBF 020310
MISLBF


WESTERN AND NORTH CENTRAL NEBRASKA HOURLY WEATHER ROUNDUP
NATIONAL WEATHER SERVICE NORTH PLATTE NE
1000 PM CDT SAT AUG 01 2015

***STATIONS NOT REPORTING VARIABLES SUCH AS SKY/WEATHER OR
PRESSURE ARE PROVIDED BY THE NEBRASKA DEPARTMENT OF
ROADS...RAWS...AND APRS NETWORKS...AND ARE NOT UNDER
NATIONAL WEATHER SERVICE QUALITY CONTROL***

...OBSERVATIONS IN AND NEAR THE EASTERN PANHANDLE OF NEBRASKA...

CITY           SKY/WX    TMP DP  RH WIND       PRES   REMARKS
PINE RIDGE     CLEAR     72  63  73 E8        29.97R
CHADRON        CLEAR     79  60  52 SE13      29.94R
ALLIANCE       CLEAR     69  61  75 S9        30.00R
SIDNEY         PTCLDY    73  54  51 SE17      30.07R
BIG SPRINGS      N/A     75  55  50 S16         N/A
$$

...OBSERVATIONS IN NORTH CENTRAL NEBRASKA...

CITY           SKY/WX    TMP DP  RH WIND       PRES   REMARKS
VALENTINE      CLEAR     70  61  73 SW9       29.94R
THEDFORD       PTCLDY    71  63  75 CALM      29.99R
AINSWORTH      PTCLDY    71  62  72 SW9       29.96R
O`NEILL        MOCLDY    71  63  74 S8        29.92R
ORD            PTCLDY    68  64  87 CALM      29.92R
BROKEN BOW     MOCLDY    73  62  68 CALM      29.94F
SPRINGVIEW       N/A     70  63  78 CALM        N/A
CHAMBERS         N/A     68  60  74 S3          N/A
EWING            N/A     68  63  83 CALM        N/A
$$

...OBSERVATIONS IN SOUTHWEST NEBRASKA AND FAR NORTHEAST COLORADO...

CITY           SKY/WX    TMP DP  RH WIND       PRES   REMARKS
WRAY           LGT RAIN  78  56  47 N18G41    30.07R
IMPERIAL       CLOUDY    79  48  33 NW13      30.07S
OGALLALA       CLOUDY    73  56  55 S6        29.98F
NORTH PLATTE   CLOUDY    71  64  78 SE8       29.94F
MCCOOK         PTCLDY    78  56  46 SW6       29.98R
LEXINGTON      CLOUDY    75  66  74 S5        29.96S
PAXTON           N/A     75  59  58 S12         N/A
BRADY            N/A     73  65  76 CALM        N/A
CALLAWAY         N/A     72  66  80 S8          N/A
$$

...NORTH PLATTE AREA...

CITY           SKY/WX    TMP DP  RH WIND       PRES   REMARKS
AIRPORT        CLOUDY    71  64  78 SE8       29.94F
DOWNTOWN         N/A     79  61  53 CALM        N/A
SANDRIDGE        N/A     79  58  47 CALM        N/A
HILLCREST        N/A     74  64  71 E5          N/A
$$

...SOME WEATHER OBSERVATIONS FROM AROUND THE REGION...

CITY           SKY/WX    TMP DP  RH WIND       PRES   REMARKS
DENVER         MOCLDY    76  49  38 S22G30    30.08R
LARAMIE        MOCLDY    68  41  37 SE6       30.23R
CHEYENNE       MOCLDY    75  47  36 E9G17     30.15R
SCOTTSBLUFF    PTCLDY    71  58  63 MISG      30.02R
RAPID CITY     CLEAR     74  57  55 S7        29.92R
PIERRE         CLEAR     77  57  50 SW6       29.80S
WINNER         FAIR      78  59  51 SW13      29.87R
SIOUX FALLS    PTCLDY    76  67  73 S13       29.84S
OMAHA          PTCLDY    76  71  85 SE8       29.90R
GRAND ISLAND   CLOUDY    73  68  84 S6        29.94R
KANSAS CITY    PTCLDY    74  62  66 SE10      29.97R
WICHITA        PTCLDY    81  71  71 S8        29.96R
HAYS           CLEAR     77  61  57 S8        29.98R
LIBERAL        MOCLDY    79  64  61 S7        30.02R
GOODLAND       MOCLDY    72  58  61 S7        30.05R
$$



USA.gov is the U.S. government's official web portal to all federal, state and local government web resources and services.